JULIUS SCHUELE DRUCKGUSS GMBH
JULIUS SCHUELE DRUCKGUSS GMBH's Shipments Over Time
Supply Ratings
Shipment Reliability and Frequency Volume of Goods
Avg. Shipments per Month: 4.67 Average TEU per month: 6.92
Active Months: 12 Average TEU per Shipment: 1.48
Shipment Frequency Std. Dev.: 2.19
Shipments By Companies
Company Name Shipments
ZF TRANSMISSIONS GRAY COURT LLC 24 104 shipments
BROSE MEXICO S A DE C V 33 shipments
ZF TRANSMISSIONS GRAY COURT LLC 30 shipments
BROSE MEXICO SA DE CV 24 shipments
BROSE NORTH AMERICA INC 21 shipments
Shipments By HS Code
HS Code Shipments
761699 Aluminium; articles n.e.c. in heading 7616 84 shipments
761519 Aluminium; table, kitchen or other household articles and parts thereof, pot scourers and scouring or polishing pads, gloves and the like, sanitary ware and parts thereof 39 shipments
761519.0 Aluminium; table, kitchen or other household articles and parts thereof, pot scourers and scouring or polishing pads, gloves and the like, sanitary ware and parts thereof 39 shipments
841590 Air conditioning machines; with motor driven fan and elements for temperature control, parts thereof 30 shipments
845430 Casting machines; of a kind used in metallurgy or in metal foundries 7 shipments
871493.0 Vehicles; parts and accessories of heading no. 8711 to 8713 4 shipments
841590.0 Air conditioning machines; comprising a motor driven fan and elements for changing the temperature and humidity, including those machines in which the humidity cannot be separately regulated 3 shipments
848390 Transmission components; toothed wheels, chain sprockets and other transmission elements presented separately; parts 3 shipments
871493 Cycles; parts thereof, hubs (other than coaster braking hubs and hub brakes) and free-wheel sprocket-wheels 3 shipments
to show market analysis.
Similar Suppliers
to see more.
Latest Shipments
Arrival Date Bill Of Lading Consignee Weight HS Code Description
2026-07-04 BANQ1075017534 ZF TRANSMISSIONS GRAY COURT LLC 24 2424.0 kg 761519 DIE-CAST ALUMINUM GEAR HOUSING
2026-06-16 BANQ1074503089 ZF TRANSMISSIONS GRAY COURT LLC 24 5656.0 kg 845430 DIE-CAST XXXXXXXXXXXXX HOUSING .
2026-06-09 BANQ1074292557 ZF TRANSMISSIONS GRAY COURT LLC 24 5656.0 kg 845430 DIE-CAST XXXXXXXXXXXXX HOUSING .
2026-05-26 BANQ1074146768 ZF TRANSMISSIONS GRAY COURT LLC 24 5656.0 kg 845430 DIE-CAST XXXXXXXXXXXXX HOUSING .
2026-05-18 BANQ1073990564 ZF TRANSMISSIONS GRAY COURT LLC 24 5656.0 kg 845430 DIE-CAST XXXXXXXXXXXXX HOUSING .
2026-05-18 BANQ1074120983 ZF TRANSMISSIONS GRAY COURT LLC 24 2828.0 kg 845430 DIE-CAST XXXXXXXX GEAR HOUSING .
2026-05-18 BANQ1074125171 ZF TRANSMISSIONS GRAY COURT LLC 24 2828.0 kg 845430 DIE-CAST XXXXXXXXXXXXX HOUSING .
2026-05-14 BANQ1074120303 ZF TRANSMISSIONS GRAY COURT LLC 24 5656.0 kg 845430 DIE-CAST XXXXXXXXXXXXX HOUSING .
2026-04-26 BANQ1072714302 ZF TRANSMISSIONS GRAY COURT LLC 24 5656.0 kg 761519.0 DIE-CAST ALUMINUM GEAR HOUSING .
2026-04-18 BANQ1072346268 ZF TRANSMISSIONS GRAY COURT LLC 24 3434.0 kg 761519.0 DIE-CAST ALUMINUM GEAR HOUSING . .
2026-04-15 BANQ1072714295 ZF TRANSMISSIONS GRAY COURT LLC 24 2929.0 kg 841590.0 AUTOMOTIVE PARTS
2026-04-08 BANQ1072826749 ZF TRANSMISSIONS GRAY COURT LLC 24 2948.0 kg 761519.0 DIE-CAST ALUMINUM GEAR HOUSING . .
2026-03-25 BANQ1072346209 ZF TRANSMISSIONS GRAY COURT LLC 24 5656.0 kg 761519.0 DIE-CAST ALUMINUM GEAR HOUSING .
2026-03-25 BANQ1073010086 ZF TRANSMISSIONS GRAY COURT LLC 24 5656.0 kg 761519.0 DIE-CAST ALUMINUM GEAR HOUSING .
2026-03-15 BANQ1071918058 ZF TRANSMISSIONS GRAY COURT LLC 24 4144.0 kg 761519.0 DIE-CAST ALUMINUM GEAR HOUSING .
2026-03-15 BANQ1071917695 ZF TRANSMISSIONS GRAY COURT LLC 24 5656.0 kg 841590.0 AUTOMOTIVE PARTS
2026-03-15 BANQ1072346385 ZF TRANSMISSIONS GRAY COURT LLC 24 4144.0 kg 761519.0 DIE-CAST ALUMINUM GEAR HOUSING .
2026-03-15 BANQ1072601957 ZF TRANSMISSIONS GRAY COURT LLC 24 5656.0 kg 761519.0 DIE-CAST ALUMINUM GEAR HOUSING .
2026-03-08 BANQ1072346281 ZF TRANSMISSIONS GRAY COURT LLC 24 5656.0 kg 761519.0 DIE-CAST ALUMINUM GEAR HOUSING .
2026-02-26 BANQ1072346301 ZF TRANSMISSIONS GRAY COURT LLC 24 5656.0 kg 761519.0 DIE-CAST ALUMINUM GEAR HOUSING .
2026-02-15 BANQ1071917904 ZF TRANSMISSIONS GRAY COURT LLC 24 5656.0 kg 761519.0 DIE-CAST ALUMINUM GEAR HOUSING .
2026-02-08 BANQ1071882499 ZF TRANSMISSIONS GRAY COURT LLC 24 5656.0 kg 761519.0 DIE-CAST ALUMINUM GEAR HOUSING .
2026-02-08 BANQ1071917125 ZF TRANSMISSIONS GRAY COURT LLC 24 4144.0 kg 761519.0 DIE-CAST ALUMINUM GEAR HOUSING .
2026-02-08 BANQ1071913855 ZF TRANSMISSIONS GRAY COURT LLC 24 4144.0 kg 761519.0 DIE-CAST ALUMINUM GEAR HOUSING .
2026-02-08 BANQ1071882482 ZF TRANSMISSIONS GRAY COURT LLC 24 5656.0 kg 761519.0 DIE-CAST ALUMINUM GEAR HOUSING .
2026-01-24 BANQ1071887796 ZF TRANSMISSIONS GRAY COURT LLC 24 4256.0 kg 761519.0 DIE-CAST ALUMINUM GEAR HOUSING .
2026-01-24 BANQ1071887722 ZF TRANSMISSIONS GRAY COURT LLC 24 4256.0 kg 761519.0 DIE-CAST ALUMINUM GEAR HOUSING .
2026-01-24 BANQ1071881626 ZF TRANSMISSIONS GRAY COURT LLC 24 4256.0 kg 761519.0 DIE-CAST ALUMINUM GEAR HOUSING .
2026-01-24 BANQ1071887081 ZF TRANSMISSIONS GRAY COURT LLC 24 4256.0 kg 761519.0 DIE-CAST ALUMINUM GEAR HOUSING .
2026-01-02 BANQ1070453672 ZF TRANSMISSIONS GRAY COURT LLC 24 4144.0 kg 761519.0 DIE-CAST ALUMINUM GEAR HOUSING .
2026-01-02 BANQ1070454113 ZF TRANSMISSIONS GRAY COURT LLC 24 4256.0 kg 761519.0 DIE-CAST ALUMINUM GEAR HOUSING .
2026-01-02 BANQ1070453989 ZF TRANSMISSIONS GRAY COURT LLC 24 4256.0 kg 761519.0 DIE-CAST ALUMINUM GEAR HOUSING .
2026-01-02 BANQ1070453788 ZF TRANSMISSIONS GRAY COURT LLC 24 4256.0 kg 761519.0 DIE-CAST ALUMINUM GEAR HOUSING .
2025-12-30 BANQ1070453557 ZF TRANSMISSIONS GRAY COURT LLC 24 4256.0 kg 761519.0 DIE-CAST ALUMINUM GEAR HOUSING .
2025-12-30 BANQ1071004646 ZF TRANSMISSIONS GRAY COURT LLC 24 4144.0 kg 761519.0 DIE-CAST ALUMINUM GEAR HOUSING
2025-12-30 BANQ1071005139 ZF TRANSMISSIONS GRAY COURT LLC 24 4144.0 kg 871493.0 DIE-CAST ALUMINIUM GEAR HOUSING .
2025-12-11 BANQ1070287022 ZF TRANSMISSIONS GRAY COURT LLC 24 4256.0 kg 761519.0 DIE-CAST ALUMINUM GEAR HOUSING .
2025-12-10 BANQ1070393221 ZF TRANSMISSIONS GRAY COURT LLC 24 4256.0 kg 761519.0 DIE-CAST ALUMINUM GEAR HOUSING .
2025-12-10 BANQ1070453163 ZF TRANSMISSIONS GRAY COURT LLC 24 4256.0 kg 871493.0 DIE-CAST ALUMINIUM GEAR HOUSING .
2025-12-04 BANQ1070453379 ZF TRANSMISSIONS GRAY COURT LLC 24 4256.0 kg 871493.0 ALUMINIUM GEAR HOUSING .
2025-11-26 BANQ1070286411 ZF TRANSMISSIONS GRAY COURT LLC 24 4256.0 kg 761519.0 DIE-CAST ALUMINUM GEAR HOUSING .
2025-11-12 BANQ1069973300 ZF TRANSMISSIONS GRAY COURT LLC 24 4256.0 kg 761519.0 DIE-CAST ALUMINUM GEAR HOUSING .
2025-11-09 BANQ1069723231 ZF TRANSMISSIONS GRAY COURT LLC 24 4256.0 kg 761519.0 DIE-CAST ALUMINUM GEAR HOUSING .
2025-11-09 BANQ1069949887 ZF TRANSMISSIONS GRAY COURT LLC 24 4256.0 kg 761519.0 DIE-CAST ALUMINUM GEAR HOUSING .
2025-11-05 BANQ1069722995 ZF TRANSMISSIONS GRAY COURT LLC 24 4256.0 kg 761519.0 DIE-CAST ALUMINUM GEAR HOUSING .
2025-10-27 BANQ1069248517 ZF TRANSMISSIONS GRAY COURT LLC 24 4256.0 kg 761519.0 DIE-CAST ALUMINUM GEAR HOUSING .
2025-10-27 BANQ1069464306 ZF TRANSMISSIONS GRAY COURT LLC 24 4256.0 kg 761519.0 DIE-CAST ALUMINUM GEAR HOUSING .
2025-10-18 BANQ1068823842 ZF TRANSMISSIONS GRAY COURT LLC 24 4256.0 kg 761519.0 DIE-CAST ALUMINUM GEAR HOUSING .
2025-10-09 BANQ1068823736 ZF TRANSMISSIONS GRAY COURT LLC 24 4256.0 kg 761519.0 DIE-CAST ALUMINUM GEAR HOUSING .
2025-09-30 BANQ1068823547 ZF TRANSMISSIONS GRAY COURT LLC 24 4256.0 kg 871493.0 CAST ALUMINIUM GEAR HOUSING .
Contact information Request
to request contact information.
Other address
BUCHSTR 195 SCHWAEBISCH GMUEND 73525 DE
BUCHSTR 195 SCHWAEBISCH GMUEND 73525 DE
BUCHSTRASSE 195